Private Wetterstation Wechselburg
Wetterdaten: Montag, 30.06.2014
Datum Zeit Temp. +2m Bodentemp. Temp.+5cm Temp. Wind Windchill X Diff Temp. Feuchte +2m Feuchte +5cm Sonnenschein Luftdruck Regen Wind Richtung Richtung Sonnenschein UV Taupunkt Windchill Windben
30.06.2014 00:00 12,9 C 25,5 C 14,3 C 13,4 C 13,4 C 0,5 C 89 % 93 % 0 % 1009,1 hPa 0,0 l/m 0,5 km/h (0 Bft) SW 225 0 min 0,0 UV-I 11,1 C 13,4 C 0,0 km/h (0 Bft)
30.06.2014 00:05 12,9 C 25,5 C 14,3 C 13,4 C 13,4 C 0,5 C 89 % 93 % 0 % 1009,1 hPa 0,0 l/m 0,5 km/h (0 Bft) SW 225 0 min 0,0 UV-I 11,1 C 13,4 C 2,1 km/h (1 Bft)
30.06.2014 00:10 12,7 C 25,4 C 14,2 C 13,3 C 13,3 C 0,6 C 89 % 93 % 0 % 1009,1 hPa 0,0 l/m 0,8 km/h (0 Bft) W-SW 247 0 min 0,0 UV-I 10,9 C 13,3 C 1,9 km/h (1 Bft)
30.06.2014 00:15 12,7 C 25,4 C 14,1 C 13,2 C 13,2 C 0,5 C 89 % 93 % 0 % 1009,1 hPa 0,0 l/m 0,6 km/h (0 Bft) NW 315 0 min 0,0 UV-I 10,9 C 13,2 C 1,8 km/h (1 Bft)
30.06.2014 00:20 12,7 C 25,4 C 14,0 C 13,1 C 13,1 C 0,4 C 89 % 94 % 0 % 1009,3 hPa 0,0 l/m 1,1 km/h (1 Bft) W-SW 247 0 min 0,0 UV-I 10,9 C 13,1 C 4,3 km/h (1 Bft)
30.06.2014 00:25 12,6 C 25,4 C 14,0 C 13,0 C 13,0 C 0,4 C 89 % 94 % 0 % 1009,3 hPa 0,0 l/m 1,3 km/h (1 Bft) W-SW 247 0 min 0,0 UV-I 10,8 C 13,0 C 0,0 km/h (0 Bft)
30.06.2014 00:30 12,5 C 25,4 C 14,1 C 12,9 C 12,9 C 0,4 C 89 % 94 % 0 % 1009,3 hPa 0,0 l/m 0,6 km/h (0 Bft) W-NW 292 0 min 0,0 UV-I 10,7 C 12,9 C 0,0 km/h (0 Bft)
30.06.2014 00:35 12,4 C 25,5 C 13,9 C 12,8 C 12,8 C 0,4 C 89 % 93 % 0 % 1009,3 hPa 0,0 l/m 0,3 km/h (0 Bft) W-SW 247 0 min 0,0 UV-I 10,6 C 12,8 C 2,3 km/h (1 Bft)
30.06.2014 00:44 12,3 C 25,5 C 13,9 C 12,6 C 12,6 C 0,3 C 89 % 94 % 0 % 1009,6 hPa 0,0 l/m 0,2 km/h (0 Bft) N 0 0 min 0,0 UV-I 10,5 C 12,6 C 0,0 km/h (0 Bft)
30.06.2014 01:03 12,1 C 25,5 C 13,7 C 12,5 C 12,5 C 0,4 C 90 % 94 % 0 % 1009,6 hPa 0,0 l/m 0,2 km/h (0 Bft) S-SO 157 0 min 0,0 UV-I 10,5 C 12,5 C 0,0 km/h (0 Bft)
30.06.2014 01:04 12,1 C 25,5 C 13,7 C 12,5 C 12,5 C 0,4 C 90 % 94 % 0 % 1009,6 hPa 0,0 l/m 0,2 km/h (0 Bft) S-SO 157 0 min 0,0 UV-I 10,5 C 12,5 C 0,0 km/h (0 Bft)
30.06.2014 01:10 12,1 C 25,5 C 13,7 C 12,6 C 12,6 C 0,5 C 90 % 94 % 0 % 1009,6 hPa 0,0 l/m 0,0 km/h (0 Bft) W 270 0 min 0,0 UV-I 10,5 C 12,6 C 0,0 km/h (0 Bft)
30.06.2014 01:15 12,1 C 25,5 C 13,7 C 12,6 C 12,6 C 0,5 C 90 % 94 % 0 % 1009,6 hPa 0,0 l/m 0,3 km/h (0 Bft) W-SW 247 0 min 0,0 UV-I 10,5 C 12,6 C 1,8 km/h (1 Bft)
30.06.2014 01:20 12,0 C 25,5 C 13,7 C 12,6 C 12,6 C 0,6 C 90 % 94 % 0 % 1009,9 hPa 0,0 l/m 0,5 km/h (0 Bft) SO 135 0 min 0,0 UV-I 10,4 C 12,6 C 0,0 km/h (0 Bft)
30.06.2014 01:25 12,1 C 25,5 C 13,6 C 12,6 C 12,6 C 0,5 C 90 % 94 % 0 % 1009,9 hPa 0,0 l/m 0,3 km/h (0 Bft) SW 225 0 min 0,0 UV-I 10,5 C 12,6 C 0,0 km/h (0 Bft)
30.06.2014 01:30 12,0 C 25,5 C 13,6 C 12,5 C 12,5 C 0,5 C 90 % 94 % 0 % 1009,9 hPa 0,0 l/m 0,0 km/h (0 Bft) W-SW 247 0 min 0,0 UV-I 10,4 C 12,5 C 0,0 km/h (0 Bft)
30.06.2014 01:35 12,0 C 25,4 C 13,7 C 12,5 C 12,5 C 0,5 C 90 % 94 % 0 % 1009,9 hPa 0,0 l/m 0,2 km/h (0 Bft) W-SW 247 0 min 0,0 UV-I 10,4 C 12,5 C 0,0 km/h (0 Bft)
30.06.2014 01:40 12,0 C 25,5 C 13,6 C 12,5 C 12,5 C 0,5 C 90 % 94 % 0 % 1009,6 hPa 0,0 l/m 0,2 km/h (0 Bft) S 180 0 min 0,0 UV-I 10,4 C 12,5 C 0,0 km/h (0 Bft)
30.06.2014 01:45 11,9 C 25,4 C 13,6 C 12,5 C 12,5 C 0,6 C 90 % 94 % 0 % 1009,6 hPa 0,0 l/m 0,2 km/h (0 Bft) W-SW 247 0 min 0,0 UV-I 10,3 C 12,5 C 2,7 km/h (1 Bft)
30.06.2014 01:50 11,9 C 25,5 C 13,5 C 12,6 C 12,6 C 0,7 C 90 % 94 % 0 % 1009,6 hPa 0,0 l/m 0,3 km/h (0 Bft) SW 225 0 min 0,0 UV-I 10,3 C 12,6 C 0,0 km/h (0 Bft)
30.06.2014 01:55 11,9 C 25,5 C 13,5 C 12,6 C 12,6 C 0,7 C 90 % 94 % 0 % 1009,6 hPa 0,0 l/m 0,6 km/h (0 Bft) S-SW 202 0 min 0,0 UV-I 10,3 C 12,6 C 1,6 km/h (1 Bft)
30.06.2014 02:00 11,8 C 25,4 C 13,6 C 12,7 C 12,7 C 0,9 C 90 % 94 % 0 % 1009,6 hPa 0,0 l/m 0,5 km/h (0 Bft) SW 225 0 min 0,0 UV-I 10,2 C 12,7 C 2,3 km/h (1 Bft)
30.06.2014 02:05 11,8 C 25,4 C 13,6 C 12,7 C 12,7 C 0,9 C 90 % 94 % 0 % 1009,6 hPa 0,0 l/m 0,6 km/h (0 Bft) W 270 0 min 0,0 UV-I 10,2 C 12,7 C 1,6 km/h (1 Bft)
30.06.2014 02:10 11,9 C 25,4 C 13,6 C 12,7 C 12,7 C 0,8 C 90 % 94 % 0 % 1009,6 hPa 0,0 l/m 0,8 km/h (0 Bft) SW 225 0 min 0,0 UV-I 10,3 C 12,7 C 0,0 km/h (0 Bft)
30.06.2014 02:15 11,9 C 25,4 C 13,5 C 12,6 C 12,6 C 0,7 C 90 % 94 % 0 % 1009,6 hPa 0,0 l/m 0,5 km/h (0 Bft) W-NW 292 0 min 0,0 UV-I 10,3 C 12,6 C 0,0 km/h (0 Bft)
30.06.2014 02:20 11,8 C 25,4 C 13,5 C 12,5 C 12,5 C 0,7 C 90 % 94 % 0 % 1009,6 hPa 0,0 l/m 0,0 km/h (0 Bft) O 90 0 min 0,0 UV-I 10,2 C 12,5 C 0,0 km/h (0 Bft)
30.06.2014 02:25 11,8 C 25,5 C 13,5 C 12,4 C 12,4 C 0,6 C 90 % 94 % 0 % 1009,6 hPa 0,0 l/m 0,0 km/h (0 Bft) O 90 0 min 0,0 UV-I 10,2 C 12,4 C 0,0 km/h (0 Bft)
30.06.2014 02:30 11,7 C 25,5 C 13,4 C 12,4 C 12,4 C 0,7 C 90 % 94 % 0 % 1009,6 hPa 0,0 l/m 0,0 km/h (0 Bft) O-SO 112 0 min 0,0 UV-I 10,1 C 12,4 C 0,0 km/h (0 Bft)
30.06.2014 02:35 11,7 C 25,5 C 13,4 C 12,3 C 12,3 C 0,6 C 90 % 94 % 0 % 1009,6 hPa 0,0 l/m 0,0 km/h (0 Bft) O-NO 67 0 min 0,0 UV-I 10,1 C 12,3 C 0,0 km/h (0 Bft)
30.06.2014 02:40 11,7 C 25,4 C 13,2 C 12,1 C 12,1 C 0,4 C 90 % 93 % 0 % 1009,5 hPa 0,0 l/m 0,0 km/h (0 Bft) N-NO 22 0 min 0,0 UV-I 10,1 C 12,1 C 0,0 km/h (0 Bft)
30.06.2014 02:45 11,6 C 25,4 C 13,3 C 12,0 C 12,0 C 0,4 C 90 % 93 % 0 % 1009,5 hPa 0,0 l/m 0,0 km/h (0 Bft) O-NO 67 0 min 0,0 UV-I 10,0 C 12,0 C 0,0 km/h (0 Bft)
30.06.2014 02:50 11,6 C 25,5 C 13,2 C 11,9 C 11,9 C 0,3 C 90 % 93 % 0 % 1009,5 hPa 0,0 l/m 0,0 km/h (0 Bft) O-NO 67 0 min 0,0 UV-I 10,0 C 11,9 C 0,0 km/h (0 Bft)
30.06.2014 02:55 11,6 C 25,5 C 13,2 C 11,8 C 11,8 C 0,2 C 90 % 93 % 0 % 1009,5 hPa 0,0 l/m 0,0 km/h (0 Bft) O-NO 67 0 min 0,0 UV-I 10,0 C 11,8 C 0,0 km/h (0 Bft)
30.06.2014 03:00 11,5 C 25,4 C 13,1 C 11,8 C 11,8 C 0,3 C 90 % 93 % 0 % 1009,9 hPa 0,0 l/m 0,0 km/h (0 Bft) W-SW 247 0 min 0,0 UV-I 9,9 C 11,8 C 0,0 km/h (0 Bft)
30.06.2014 03:05 11,5 C 25,4 C 13,1 C 11,7 C 11,7 C 0,2 C 90 % 93 % 0 % 1009,9 hPa 0,0 l/m 0,0 km/h (0 Bft) S-SO 157 0 min 0,0 UV-I 9,9 C 11,7 C 0,0 km/h (0 Bft)
30.06.2014 03:10 11,5 C 25,4 C 13,0 C 11,6 C 11,6 C 0,1 C 90 % 93 % 0 % 1009,9 hPa 0,0 l/m 0,0 km/h (0 Bft) SO 135 0 min 0,0 UV-I 9,9 C 11,6 C 0,0 km/h (0 Bft)
30.06.2014 03:15 11,4 C 25,4 C 13,1 C 11,6 C 11,6 C 0,2 C 90 % 93 % 0 % 1009,9 hPa 0,0 l/m 0,0 km/h (0 Bft) O-NO 67 0 min 0,0 UV-I 9,8 C 11,6 C 0,0 km/h (0 Bft)
30.06.2014 03:20 11,4 C 25,4 C 12,8 C 11,4 C 11,4 C 0,0 C 90 % 93 % 0 % 1009,7 hPa 0,0 l/m 0,0 km/h (0 Bft) W 270 0 min 0,0 UV-I 9,8 C 11,4 C 0,0 km/h (0 Bft)
30.06.2014 03:25 11,3 C 25,4 C 12,8 C 11,4 C 11,4 C 0,1 C 90 % 94 % 0 % 1009,7 hPa 0,0 l/m 0,0 km/h (0 Bft) S-SO 157 0 min 0,0 UV-I 9,7 C 11,4 C 0,0 km/h (0 Bft)
30.06.2014 03:30 11,2 C 25,4 C 12,8 C 11,3 C 11,3 C 0,1 C 90 % 94 % 0 % 1009,7 hPa 0,0 l/m 0,0 km/h (0 Bft) S-SW 202 0 min 0,0 UV-I 9,6 C 11,3 C 0,0 km/h (0 Bft)
30.06.2014 03:35 11,3 C 25,4 C 12,7 C 11,3 C 11,2 C 0,0 C 90 % 94 % 0 % 1009,7 hPa 0,0 l/m 0,0 km/h (0 Bft) O-NO 67 0 min 0,0 UV-I 9,7 C 11,2 C 0,0 km/h (0 Bft)
30.06.2014 03:40 11,1 C 25,4 C 12,7 C 11,1 C 11,1 C 0,0 C 90 % 94 % 0 % 1009,7 hPa 0,0 l/m 0,0 km/h (0 Bft) S 180 0 min 0,0 UV-I 9,5 C 11,1 C 0,0 km/h (0 Bft)
30.06.2014 03:45 11,0 C 25,4 C 12,7 C 11,1 C 11,1 C 0,1 C 90 % 94 % 0 % 1009,7 hPa 0,0 l/m 0,0 km/h (0 Bft) S 180 0 min 0,0 UV-I 9,4 C 11,1 C 0,0 km/h (0 Bft)
30.06.2014 03:50 11,1 C 25,4 C 12,7 C 11,2 C 11,2 C 0,1 C 90 % 94 % 0 % 1009,7 hPa 0,0 l/m 0,0 km/h (0 Bft) S-SW 202 0 min 0,0 UV-I 9,5 C 11,2 C 0,0 km/h (0 Bft)
30.06.2014 03:55 11,1 C 25,4 C 12,7 C 11,3 C 11,3 C 0,2 C 90 % 94 % 0 % 1009,7 hPa 0,0 l/m 0,0 km/h (0 Bft) SO 135 0 min 0,0 UV-I 9,5 C 11,3 C 0,0 km/h (0 Bft)
30.06.2014 04:00 10,9 C 25,4 C 12,7 C 11,2 C 11,2 C 0,3 C 90 % 94 % 0 % 1009,8 hPa 0,0 l/m 0,0 km/h (0 Bft) S 180 0 min 0,0 UV-I 9,3 C 11,2 C 0,0 km/h (0 Bft)
30.06.2014 04:05 10,9 C 25,4 C 12,6 C 11,2 C 11,2 C 0,3 C 90 % 94 % 0 % 1009,8 hPa 0,0 l/m 0,0 km/h (0 Bft) SW 225 0 min 0,0 UV-I 9,3 C 11,2 C 0,0 km/h (0 Bft)
30.06.2014 04:10 10,8 C 25,3 C 12,6 C 11,1 C 11,1 C 0,3 C 90 % 94 % 0 % 1009,8 hPa 0,0 l/m 0,0 km/h (0 Bft) S-SO 157 0 min 0,0 UV-I 9,2 C 11,1 C 0,0 km/h (0 Bft)
30.06.2014 04:15 10,8 C 25,3 C 12,6 C 11,1 C 11,1 C 0,3 C 90 % 94 % 0 % 1009,8 hPa 0,0 l/m 0,0 km/h (0 Bft) S 180 0 min 0,0 UV-I 9,2 C 11,1 C 0,0 km/h (0 Bft)
30.06.2014 04:20 10,8 C 25,3 C 12,5 C 11,1 C 11,1 C 0,3 C 90 % 94 % 0 % 1009,8 hPa 0,0 l/m 0,0 km/h (0 Bft) N-NO 22 0 min 0,0 UV-I 9,2 C 11,1 C 0,0 km/h (0 Bft)
30.06.2014 04:25 10,9 C 25,3 C 12,4 C 11,0 C 11,0 C 0,1 C 90 % 94 % 0 % 1009,8 hPa 0,0 l/m 0,0 km/h (0 Bft) S-SO 157 0 min 0,0 UV-I 9,3 C 11,0 C 0,0 km/h (0 Bft)
30.06.2014 04:30 10,7 C 25,3 C 12,5 C 11,0 C 11,0 C 0,3 C 90 % 94 % 0 % 1009,8 hPa 0,0 l/m 0,0 km/h (0 Bft) S 180 0 min 0,0 UV-I 9,1 C 11,0 C 0,0 km/h (0 Bft)
30.06.2014 04:35 10,7 C 25,3 C 12,5 C 10,9 C 10,9 C 0,2 C 90 % 94 % 0 % 1009,8 hPa 0,0 l/m 0,0 km/h (0 Bft) S-SW 202 0 min 0,0 UV-I 9,1 C 10,9 C 0,0 km/h (0 Bft)
30.06.2014 04:40 10,7 C 25,3 C 12,5 C 10,9 C 10,9 C 0,2 C 90 % 94 % 0 % 1009,9 hPa 0,0 l/m 0,0 km/h (0 Bft) S-SW 202 0 min 0,0 UV-I 9,1 C 10,9 C 0,0 km/h (0 Bft)
30.06.2014 04:45 10,7 C 25,3 C 12,4 C 10,9 C 10,9 C 0,2 C 90 % 94 % 0 % 1009,9 hPa 0,0 l/m 0,0 km/h (0 Bft) O-NO 67 0 min 0,0 UV-I 9,1 C 10,9 C 0,0 km/h (0 Bft)
30.06.2014 04:50 10,7 C 25,3 C 12,4 C 10,9 C 10,9 C 0,2 C 90 % 94 % 0 % 1009,9 hPa 0,0 l/m 0,0 km/h (0 Bft) O-SO 112 0 min 0,0 UV-I 9,1 C 10,9 C 0,0 km/h (0 Bft)
30.06.2014 04:55 10,7 C 25,3 C 12,3 C 10,9 C 10,9 C 0,2 C 90 % 94 % 0 % 1009,9 hPa 0,0 l/m 0,0 km/h (0 Bft) W 270 0 min 0,0 UV-I 9,1 C 10,9 C 0,0 km/h (0 Bft)
30.06.2014 05:00 10,7 C 25,3 C 12,3 C 11,0 C 11,0 C 0,3 C 90 % 94 % 0 % 1009,9 hPa 0,0 l/m 0,0 km/h (0 Bft) SW 225 0 min 0,0 UV-I 9,1 C 11,0 C 0,0 km/h (0 Bft)
30.06.2014 05:05 10,7 C 25,3 C 12,4 C 11,1 C 11,1 C 0,4 C 90 % 94 % 0 % 1009,9 hPa 0,0 l/m 0,0 km/h (0 Bft) SW 225 0 min 0,0 UV-I 9,1 C 11,1 C 0,0 km/h (0 Bft)
30.06.2014 05:10 10,7 C 25,2 C 12,4 C 11,2 C 11,2 C 0,5 C 90 % 94 % 0 % 1009,9 hPa 0,0 l/m 0,0 km/h (0 Bft) SW 225 0 min 0,0 UV-I 9,1 C 11,2 C 0,0 km/h (0 Bft)
30.06.2014 05:15 10,7 C 25,2 C 12,5 C 11,2 C 11,2 C 0,5 C 90 % 94 % 13 % 1009,9 hPa 0,0 l/m 0,0 km/h (0 Bft) S 180 5 min 0,0 UV-I 9,1 C 11,2 C 0,0 km/h (0 Bft)
30.06.2014 05:20 10,6 C 25,2 C 12,5 C 11,3 C 11,3 C 0,7 C 91 % 94 % 18 % 1010,1 hPa 0,0 l/m 0,0 km/h (0 Bft) SW 225 5 min 0,0 UV-I 9,2 C 11,3 C 0,0 km/h (0 Bft)
30.06.2014 05:25 10,6 C 25,2 C 12,5 C 11,4 C 11,4 C 0,8 C 91 % 94 % 21 % 1010,1 hPa 0,0 l/m 0,0 km/h (0 Bft) W-SW 247 5 min 0,0 UV-I 9,2 C 11,4 C 0,0 km/h (0 Bft)
30.06.2014 05:30 10,7 C 25,2 C 12,5 C 11,4 C 11,4 C 0,7 C 91 % 94 % 18 % 1010,1 hPa 0,0 l/m 0,0 km/h (0 Bft) S-SW 202 5 min 0,0 UV-I 9,3 C 11,4 C 0,0 km/h (0 Bft)
30.06.2014 05:35 10,7 C 25,1 C 12,7 C 11,4 C 11,4 C 0,7 C 91 % 94 % 18 % 1010,1 hPa 0,0 l/m 0,0 km/h (0 Bft) W-SW 247 5 min 0,0 UV-I 9,3 C 11,4 C 0,0 km/h (0 Bft)
30.06.2014 05:40 10,8 C 25,2 C 12,5 C 11,4 C 11,4 C 0,6 C 91 % 94 % 16 % 1010,0 hPa 0,0 l/m 0,0 km/h (0 Bft) W-SW 247 0 min 0,0 UV-I 9,4 C 11,4 C 0,0 km/h (0 Bft)
30.06.2014 05:45 10,8 C 25,2 C 12,5 C 11,4 C 11,4 C 0,6 C 91 % 94 % 16 % 1010,0 hPa 0,0 l/m 0,0 km/h (0 Bft) W-SW 247 0 min 0,0 UV-I 9,4 C 11,4 C 0,0 km/h (0 Bft)
30.06.2014 05:50 10,8 C 25,2 C 12,5 C 11,5 C 11,5 C 0,7 C 91 % 94 % 18 % 1010,0 hPa 0,0 l/m 0,0 km/h (0 Bft) W-NW 292 0 min 0,0 UV-I 9,4 C 11,5 C 0,0 km/h (0 Bft)
30.06.2014 05:55 10,8 C 25,2 C 12,6 C 11,6 C 11,6 C 0,8 C 91 % 94 % 21 % 1010,0 hPa 0,0 l/m 0,0 km/h (0 Bft) O-NO 67 0 min 0,0 UV-I 9,4 C 11,6 C 0,0 km/h (0 Bft)
30.06.2014 06:00 10,9 C 25,2 C 12,7 C 11,7 C 11,7 C 0,8 C 91 % 94 % 21 % 1009,7 hPa 0,0 l/m 0,0 km/h (0 Bft) O-NO 67 0 min 0,0 UV-I 9,5 C 11,7 C 0,0 km/h (0 Bft)
30.06.2014 06:05 10,9 C 25,2 C 12,7 C 11,8 C 11,8 C 0,9 C 91 % 94 % 24 % 1009,7 hPa 0,0 l/m 0,0 km/h (0 Bft) NO 45 0 min 0,0 UV-I 9,5 C 11,8 C 0,0 km/h (0 Bft)
30.06.2014 06:10 11,0 C 25,1 C 12,8 C 11,9 C 11,9 C 0,9 C 91 % 94 % 24 % 1009,7 hPa 0,0 l/m 0,0 km/h (0 Bft) S-SO 157 0 min 0,0 UV-I 9,6 C 11,9 C 0,0 km/h (0 Bft)
30.06.2014 06:15 11,1 C 25,1 C 12,8 C 12,0 C 12,0 C 0,9 C 91 % 94 % 24 % 1009,7 hPa 0,0 l/m 0,0 km/h (0 Bft) SO 135 0 min 0,0 UV-I 9,7 C 12,0 C 0,0 km/h (0 Bft)
30.06.2014 06:20 11,1 C 25,1 C 12,9 C 12,2 C 12,2 C 1,1 C 91 % 94 % 29 % 1009,9 hPa 0,0 l/m 0,0 km/h (0 Bft) W-SW 247 0 min 0,0 UV-I 9,7 C 12,2 C 0,0 km/h (0 Bft)
30.06.2014 06:25 11,2 C 24,9 C 13,1 C 12,3 C 12,3 C 1,1 C 92 % 94 % 29 % 1009,9 hPa 0,0 l/m 0,0 km/h (0 Bft) SW 225 0 min 0,0 UV-I 9,9 C 12,3 C 0,0 km/h (0 Bft)
30.06.2014 06:30 11,2 C 24,9 C 13,2 C 12,4 C 12,4 C 1,2 C 92 % 94 % 32 % 1009,9 hPa 0,0 l/m 0,0 km/h (0 Bft) S 180 0 min 0,0 UV-I 9,9 C 12,4 C 0,0 km/h (0 Bft)
30.06.2014 06:35 11,3 C 24,9 C 13,2 C 12,4 C 12,4 C 1,1 C 92 % 94 % 29 % 1009,9 hPa 0,0 l/m 0,0 km/h (0 Bft) S 180 0 min 0,0 UV-I 10,0 C 12,4 C 0,0 km/h (0 Bft)
30.06.2014 06:41 11,5 C 24,8 C 13,4 C 12,6 C 12,6 C 1,1 C 92 % 94 % 29 % 1010,3 hPa 0,0 l/m 0,0 km/h (0 Bft) N 0 0 min 0,0 UV-I 10,2 C 12,6 C 1,9 km/h (1 Bft)
30.06.2014 07:01 11,9 C 24,8 C 13,9 C 14,2 C 14,2 C 2,3 C 92 % 94 % 61 % 1010,6 hPa 0,0 l/m 0,3 km/h (0 Bft) S 180 0 min 0,0 UV-I 10,6 C 14,2 C 2,1 km/h (1 Bft)
30.06.2014 07:02 11,9 C 24,8 C 13,9 C 14,2 C 14,2 C 2,3 C 92 % 94 % 61 % 1010,6 hPa 0,0 l/m 0,3 km/h (0 Bft) S 180 0 min 0,0 UV-I 10,6 C 14,2 C 2,1 km/h (1 Bft)
30.06.2014 07:05 11,9 C 24,8 C 13,9 C 14,2 C 14,2 C 2,3 C 92 % 94 % 61 % 1010,6 hPa 0,0 l/m 0,3 km/h (0 Bft) S 180 0 min 0,0 UV-I 10,6 C 14,2 C 2,1 km/h (1 Bft)
30.06.2014 07:10 12,0 C 24,8 C 14,1 C 14,7 C 14,7 C 2,7 C 92 % 94 % 71 % 1010,6 hPa 0,0 l/m 0,8 km/h (0 Bft) W 270 0 min 0,0 UV-I 10,7 C 14,7 C 4,5 km/h (1 Bft)
30.06.2014 07:15 12,0 C 24,8 C 14,1 C 15,2 C 15,2 C 3,2 C 92 % 94 % 84 % 1010,6 hPa 0,0 l/m 1,1 km/h (1 Bft) S-SW 202 5 min 0,0 UV-I 10,7 C 15,2 C 2,3 km/h (1 Bft)
30.06.2014 07:20 12,1 C 24,8 C 14,3 C 15,8 C 15,8 C 3,7 C 92 % 94 % 97 % 1010,6 hPa 0,0 l/m 1,0 km/h (0 Bft) W-SW 247 5 min 0,0 UV-I 10,8 C 15,8 C 4,7 km/h (1 Bft)
30.06.2014 07:25 12,2 C 24,7 C 14,4 C 15,9 C 15,9 C 3,7 C 92 % 94 % 97 % 1010,6 hPa 0,0 l/m 1,3 km/h (1 Bft) W 270 5 min 0,0 UV-I 10,9 C 15,9 C 2,6 km/h (1 Bft)
30.06.2014 07:30 12,3 C 24,7 C 14,5 C 16,1 C 16,1 C 3,8 C 92 % 94 % 100 % 1010,6 hPa 0,0 l/m 1,4 km/h (1 Bft) SW 225 5 min 0,0 UV-I 11,0 C 16,1 C 5,5 km/h (1 Bft)
30.06.2014 07:35 12,4 C 24,7 C 14,7 C 16,4 C 16,4 C 4,0 C 92 % 94 % 100 % 1010,6 hPa 0,0 l/m 1,8 km/h (1 Bft) W 270 5 min 0,0 UV-I 11,1 C 16,4 C 2,1 km/h (1 Bft)
30.06.2014 07:40 12,4 C 24,7 C 14,6 C 16,1 C 16,1 C 3,7 C 91 % 94 % 97 % 1010,4 hPa 0,0 l/m 2,3 km/h (1 Bft) SW 225 5 min 0,0 UV-I 11,0 C 16,1 C 5,8 km/h (2 Bft)
30.06.2014 07:45 12,4 C 24,7 C 14,7 C 16,1 C 16,1 C 3,7 C 91 % 94 % 97 % 1010,4 hPa 0,0 l/m 3,1 km/h (1 Bft) NW 315 5 min 0,0 UV-I 11,0 C 16,1 C 4,5 km/h (1 Bft)
30.06.2014 07:50 12,5 C 24,7 C 14,7 C 16,1 C 16,1 C 3,6 C 91 % 93 % 95 % 1010,4 hPa 0,0 l/m 2,9 km/h (1 Bft) S 180 5 min 0,0 UV-I 11,1 C 16,1 C 7,1 km/h (2 Bft)
30.06.2014 07:55 12,5 C 24,7 C 14,7 C 15,9 C 15,9 C 3,4 C 91 % 93 % 89 % 1010,4 hPa 0,0 l/m 2,7 km/h (1 Bft) SW 225 5 min 0,0 UV-I 11,1 C 15,9 C 1,8 km/h (1 Bft)
30.06.2014 08:00 12,6 C 24,7 C 14,7 C 15,8 C 15,8 C 3,2 C 91 % 93 % 84 % 1010,6 hPa 0,0 l/m 2,7 km/h (1 Bft) W-SW 247 0 min 0,0 UV-I 11,2 C 15,8 C 9,2 km/h (2 Bft)
30.06.2014 08:05 12,7 C 24,7 C 14,7 C 15,7 C 15,7 C 3,0 C 90 % 93 % 79 % 1010,6 hPa 0,0 l/m 2,1 km/h (1 Bft) SW 225 0 min 0,0 UV-I 11,1 C 15,7 C 6,8 km/h (2 Bft)
30.06.2014 08:10 12,6 C 24,7 C 14,6 C 15,6 C 15,6 C 3,0 C 90 % 93 % 79 % 1010,6 hPa 0,0 l/m 1,4 km/h (1 Bft) W-SW 247 0 min 0,0 UV-I 11,0 C 15,6 C 3,4 km/h (1 Bft)
30.06.2014 08:15 12,7 C 24,7 C 14,7 C 15,6 C 15,6 C 2,9 C 90 % 93 % 76 % 1010,6 hPa 0,0 l/m 1,9 km/h (1 Bft) S 180 0 min 0,0 UV-I 11,1 C 15,6 C 3,9 km/h (1 Bft)
30.06.2014 08:20 12,7 C 24,7 C 14,7 C 15,7 C 15,7 C 3,0 C 90 % 93 % 79 % 1011,1 hPa 0,0 l/m 2,6 km/h (1 Bft) W 270 0 min 0,0 UV-I 11,1 C 15,7 C 1,8 km/h (1 Bft)
30.06.2014 08:25 12,8 C 24,7 C 14,7 C 15,7 C 15,7 C 2,9 C 90 % 93 % 76 % 1011,1 hPa 0,0 l/m 2,4 km/h (1 Bft) W 270 0 min 0,0 UV-I 11,2 C 15,7 C 4,8 km/h (1 Bft)
30.06.2014 08:30 12,8 C 24,6 C 14,8 C 15,9 C 15,9 C 3,1 C 90 % 93 % 82 % 1011,1 hPa 0,0 l/m 2,6 km/h (1 Bft) SW 225 0 min 0,0 UV-I 11,2 C 15,9 C 3,1 km/h (1 Bft)
30.06.2014 08:35 12,9 C 24,6 C 14,9 C 16,2 C 16,2 C 3,3 C 90 % 93 % 87 % 1011,1 hPa 0,0 l/m 2,7 km/h (1 Bft) NW 315 5 min 0,0 UV-I 11,3 C 16,2 C 0,0 km/h (0 Bft)
30.06.2014 08:40 13,1 C 24,6 C 15,1 C 16,8 C 16,8 C 3,7 C 90 % 93 % 97 % 1011,2 hPa 0,0 l/m 2,1 km/h (1 Bft) S-SO 157 5 min 0,0 UV-I 11,5 C 16,8 C 3,5 km/h (1 Bft)
30.06.2014 08:45 13,1 C 24,6 C 15,1 C 16,8 C 16,8 C 3,7 C 89 % 93 % 97 % 1011,2 hPa 0,0 l/m 1,9 km/h (1 Bft) W-SW 247 5 min 0,0 UV-I 11,3 C 16,8 C 2,1 km/h (1 Bft)
30.06.2014 08:50 13,1 C 24,6 C 15,1 C 16,5 C 16,5 C 3,4 C 89 % 93 % 89 % 1011,2 hPa 0,0 l/m 2,6 km/h (1 Bft) S 180 5 min 0,0 UV-I 11,3 C 16,5 C 3,7 km/h (1 Bft)
30.06.2014 08:55 13,2 C 24,6 C 15,1 C 16,6 C 16,6 C 3,4 C 89 % 93 % 89 % 1011,2 hPa 0,0 l/m 2,3 km/h (1 Bft) S 180 5 min 0,0 UV-I 11,4 C 16,6 C 3,2 km/h (1 Bft)
30.06.2014 09:00 13,3 C 24,6 C 15,1 C 16,5 C 16,5 C 3,2 C 88 % 93 % 84 % 1011,4 hPa 0,0 l/m 2,1 km/h (1 Bft) W-SW 247 0 min 0,0 UV-I 11,4 C 16,5 C 4,7 km/h (1 Bft)
30.06.2014 09:05 13,3 C 24,6 C 15,2 C 16,8 C 16,8 C 3,5 C 88 % 93 % 92 % 1011,4 hPa 0,0 l/m 2,6 km/h (1 Bft) S 180 5 min 0,0 UV-I 11,4 C 16,8 C 1,9 km/h (1 Bft)
30.06.2014 09:10 13,5 C 24,6 C 15,6 C 19,4 C 19,4 C 5,9 C 89 % 92 % 100 % 1011,4 hPa 0,0 l/m 3,2 km/h (1 Bft) N-NW 337 5 min 0,0 UV-I 11,7 C 19,4 C 1,8 km/h (1 Bft)
30.06.2014 09:15 13,9 C 24,6 C 15,7 C 20,9 C 20,9 C 7,0 C 89 % 92 % 100 % 1011,4 hPa 0,0 l/m 2,9 km/h (1 Bft) S-SW 202 5 min 0,0 UV-I 12,1 C 20,9 C 7,1 km/h (2 Bft)
30.06.2014 09:20 14,2 C 24,6 C 15,9 C 21,5 C 21,5 C 7,3 C 88 % 92 % 100 % 1011,2 hPa 0,0 l/m 2,3 km/h (1 Bft) S 180 5 min 0,0 UV-I 12,2 C 21,5 C 4,2 km/h (1 Bft)
30.06.2014 09:25 14,4 C 24,6 C 15,9 C 21,0 C 21,0 C 6,6 C 87 % 92 % 100 % 1011,2 hPa 0,0 l/m 2,4 km/h (1 Bft) SW 225 5 min 0,0 UV-I 12,3 C 21,0 C 2,7 km/h (1 Bft)
30.06.2014 09:30 14,6 C 24,6 C 15,9 C 20,1 C 20,1 C 5,5 C 86 % 91 % 100 % 1011,2 hPa 0,0 l/m 3,1 km/h (1 Bft) S 180 5 min 0,0 UV-I 12,3 C 20,1 C 9,3 km/h (2 Bft)
30.06.2014 09:35 14,7 C 24,6 C 15,9 C 20,0 C 20,0 C 5,3 C 85 % 91 % 100 % 1011,2 hPa 0,0 l/m 3,5 km/h (1 Bft) S-SW 202 5 min 0,0 UV-I 12,2 C 20,0 C 4,5 km/h (1 Bft)
30.06.2014 09:40 14,7 C 24,6 C 15,6 C 18,7 C 18,7 C 4,0 C 84 % 91 % 100 % 1011,4 hPa 0,0 l/m 3,2 km/h (1 Bft) S 180 5 min 0,0 UV-I 12,0 C 18,7 C 7,6 km/h (2 Bft)
30.06.2014 09:45 14,6 C 24,6 C 15,4 C 17,8 C 17,8 C 3,2 C 84 % 91 % 84 % 1011,4 hPa 0,0 l/m 2,7 km/h (1 Bft) NO 45 0 min 0,0 UV-I 11,9 C 17,8 C 2,9 km/h (1 Bft)
30.06.2014 09:50 14,5 C 24,6 C 15,5 C 17,1 C 17,1 C 2,6 C 83 % 91 % 68 % 1011,4 hPa 0,0 l/m 2,6 km/h (1 Bft) SW 225 0 min 0,0 UV-I 11,6 C 17,1 C 7,6 km/h (2 Bft)
30.06.2014 09:55 14,5 C 24,6 C 15,5 C 17,1 C 17,1 C 2,6 C 83 % 91 % 68 % 1011,4 hPa 0,0 l/m 2,7 km/h (1 Bft) S 180 0 min 0,0 UV-I 11,6 C 17,1 C 4,8 km/h (1 Bft)
30.06.2014 10:00 14,3 C 24,6 C 15,4 C 16,6 C 16,6 C 2,3 C 83 % 90 % 61 % 1011,7 hPa 0,0 l/m 3,5 km/h (1 Bft) O-NO 67 0 min 0,0 UV-I 11,5 C 16,6 C 3,9 km/h (1 Bft)
30.06.2014 10:05 14,3 C 24,6 C 15,4 C 16,6 C 16,6 C 2,3 C 83 % 90 % 61 % 1011,7 hPa 0,0 l/m 2,9 km/h (1 Bft) SW 225 0 min 0,0 UV-I 11,5 C 16,6 C 4,3 km/h (1 Bft)
30.06.2014 10:10 14,3 C 24,6 C 15,5 C 17,6 C 17,6 C 3,3 C 83 % 90 % 87 % 1011,7 hPa 0,0 l/m 2,4 km/h (1 Bft) W 270 5 min 0,0 UV-I 11,5 C 17,6 C 4,0 km/h (1 Bft)
30.06.2014 10:15 14,4 C 24,6 C 15,7 C 19,0 C 19,0 C 4,6 C 84 % 91 % 100 % 1011,7 hPa 0,0 l/m 2,6 km/h (1 Bft) SW 225 5 min 0,0 UV-I 11,7 C 19,0 C 4,8 km/h (1 Bft)
30.06.2014 10:20 14,7 C 24,6 C 15,7 C 18,9 C 18,9 C 4,2 C 83 % 91 % 100 % 1011,5 hPa 0,0 l/m 1,9 km/h (1 Bft) W 270 5 min 0,0 UV-I 11,8 C 18,9 C 4,8 km/h (1 Bft)
30.06.2014 10:25 14,7 C 24,6 C 15,6 C 18,5 C 18,5 C 3,8 C 83 % 90 % 100 % 1011,5 hPa 0,0 l/m 2,1 km/h (1 Bft) W 270 5 min 0,0 UV-I 11,8 C 18,5 C 3,1 km/h (1 Bft)
30.06.2014 10:30 14,9 C 24,4 C 15,8 C 19,5 C 19,5 C 4,6 C 83 % 90 % 100 % 1011,5 hPa 0,0 l/m 2,7 km/h (1 Bft) S 180 5 min 0,0 UV-I 12,0 C 19,5 C 5,8 km/h (2 Bft)
30.06.2014 10:35 14,9 C 24,5 C 16,0 C 20,5 C 20,5 C 5,6 C 82 % 90 % 100 % 1011,5 hPa 0,0 l/m 3,1 km/h (1 Bft) SW 225 5 min 0,0 UV-I 11,9 C 20,5 C 4,7 km/h (1 Bft)
30.06.2014 10:40 15,3 C 24,5 C 16,1 C 21,6 C 21,6 C 6,3 C 82 % 90 % 100 % 1011,6 hPa 0,0 l/m 3,4 km/h (1 Bft) S 180 5 min 0,0 UV-I 12,2 C 21,6 C 2,9 km/h (1 Bft)
30.06.2014 10:45 15,5 C 24,5 C 16,1 C 21,5 C 21,5 C 6,0 C 82 % 89 % 100 % 1011,6 hPa 0,0 l/m 3,2 km/h (1 Bft) N 360 5 min 0,0 UV-I 12,4 C 21,5 C 5,1 km/h (1 Bft)
30.06.2014 10:50 15,5 C 24,5 C 16,0 C 19,9 C 19,9 C 4,4 C 81 % 89 % 100 % 1011,6 hPa 0,0 l/m 3,9 km/h (1 Bft) W 270 5 min 0,0 UV-I 12,3 C 19,9 C 3,5 km/h (1 Bft)
30.06.2014 10:55 15,6 C 24,4 C 16,1 C 21,1 C 21,1 C 5,5 C 80 % 89 % 100 % 1011,6 hPa 0,0 l/m 4,0 km/h (1 Bft) NW 315 5 min 0,0 UV-I 12,2 C 21,1 C 3,7 km/h (1 Bft)
30.06.2014 11:00 15,9 C 24,5 C 16,0 C 22,2 C 22,2 C 6,3 C 80 % 89 % 100 % 1011,5 hPa 0,0 l/m 3,2 km/h (1 Bft) SW 225 5 min 0,0 UV-I 12,5 C 22,2 C 6,4 km/h (2 Bft)
30.06.2014 11:05 16,0 C 24,5 C 16,0 C 21,7 C 21,7 C 5,7 C 79 % 88 % 100 % 1011,5 hPa 0,0 l/m 3,7 km/h (1 Bft) W 270 5 min 0,0 UV-I 12,4 C 21,7 C 5,1 km/h (1 Bft)
30.06.2014 11:10 16,3 C 24,4 C 16,1 C 21,5 C 21,5 C 5,2 C 77 % 88 % 100 % 1011,5 hPa 0,0 l/m 4,8 km/h (1 Bft) SW 225 5 min 0,0 UV-I 12,3 C 21,5 C 11,4 km/h (2 Bft)
30.06.2014 11:15 16,3 C 24,4 C 16,1 C 20,7 C 20,7 C 4,4 C 76 % 87 % 100 % 1011,5 hPa 0,0 l/m 4,8 km/h (1 Bft) SW 225 5 min 0,0 UV-I 12,1 C 20,7 C 4,5 km/h (1 Bft)
30.06.2014 11:20 16,3 C 24,5 C 16,2 C 21,6 C 21,6 C 5,3 C 76 % 87 % 100 % 1011,5 hPa 0,0 l/m 4,5 km/h (1 Bft) W-NW 292 5 min 0,0 UV-I 12,1 C 21,6 C 3,1 km/h (1 Bft)
30.06.2014 11:25 16,5 C 24,5 C 16,4 C 22,0 C 22,0 C 5,5 C 76 % 87 % 100 % 1011,5 hPa 0,0 l/m 3,2 km/h (1 Bft) W-SW 247 5 min 0,0 UV-I 12,3 C 22,0 C 4,3 km/h (1 Bft)
30.06.2014 11:30 16,7 C 24,5 C 16,7 C 21,3 C 21,3 C 4,6 C 75 % 87 % 100 % 1011,5 hPa 0,0 l/m 3,2 km/h (1 Bft) S-SO 157 5 min 0,0 UV-I 12,2 C 21,3 C 3,7 km/h (1 Bft)
30.06.2014 11:35 16,8 C 24,5 C 16,8 C 22,6 C 22,6 C 5,8 C 75 % 86 % 100 % 1011,5 hPa 0,0 l/m 3,1 km/h (1 Bft) N-NO 22 5 min 0,0 UV-I 12,3 C 22,6 C 0,0 km/h (0 Bft)
30.06.2014 11:40 17,1 C 24,5 C 16,8 C 23,5 C 23,5 C 6,4 C 74 % 84 % 100 % 1011,5 hPa 0,0 l/m 2,3 km/h (1 Bft) N-NW 337 5 min 0,0 UV-I 12,4 C 23,5 C 5,6 km/h (1 Bft)
30.06.2014 11:45 17,1 C 24,5 C 16,5 C 21,8 C 21,8 C 4,7 C 73 % 85 % 100 % 1011,5 hPa 0,0 l/m 2,9 km/h (1 Bft) SW 225 5 min 0,0 UV-I 12,2 C 21,8 C 3,9 km/h (1 Bft)
30.06.2014 11:50 16,6 C 24,5 C 16,2 C 19,8 C 19,8 C 3,2 C 74 % 85 % 84 % 1011,5 hPa 0,0 l/m 3,9 km/h (1 Bft) S 180 0 min 0,0 UV-I 11,9 C 19,8 C 4,8 km/h (1 Bft)
30.06.2014 11:55 16,4 C 24,5 C 16,2 C 18,8 C 18,8 C 2,4 C 75 % 85 % 63 % 1011,5 hPa 0,0 l/m 3,2 km/h (1 Bft) N-NW 337 0 min 0,0 UV-I 12,0 C 18,8 C 1,9 km/h (1 Bft)
30.06.2014 12:00 16,3 C 24,5 C 16,2 C 18,5 C 18,5 C 2,2 C 76 % 85 % 58 % 1011,7 hPa 0,0 l/m 2,1 km/h (1 Bft) W-SW 247 0 min 0,0 UV-I 12,1 C 18,5 C 2,9 km/h (1 Bft)
30.06.2014 12:05 16,3 C 24,5 C 16,3 C 18,5 C 18,5 C 2,2 C 76 % 85 % 58 % 1011,7 hPa 0,0 l/m 2,4 km/h (1 Bft) SW 225 0 min 0,0 UV-I 12,1 C 18,5 C 2,1 km/h (1 Bft)
30.06.2014 12:10 16,4 C 24,4 C 16,5 C 19,0 C 19,0 C 2,6 C 76 % 85 % 68 % 1011,7 hPa 0,0 l/m 2,9 km/h (1 Bft) NO 45 0 min 0,0 UV-I 12,2 C 19,0 C 3,5 km/h (1 Bft)
30.06.2014 12:15 16,5 C 24,5 C 16,7 C 19,4 C 19,4 C 2,9 C 77 % 85 % 76 % 1011,7 hPa 0,0 l/m 3,2 km/h (1 Bft) W-SW 247 0 min 0,0 UV-I 12,5 C 19,4 C 2,9 km/h (1 Bft)
30.06.2014 12:20 16,5 C 24,5 C 16,8 C 19,9 C 19,9 C 3,4 C 77 % 85 % 89 % 1011,6 hPa 0,0 l/m 2,9 km/h (1 Bft) NW 315 5 min 0,0 UV-I 12,5 C 19,9 C 2,9 km/h (1 Bft)
30.06.2014 12:25 16,7 C 24,5 C 16,9 C 20,3 C 20,3 C 3,6 C 77 % 84 % 95 % 1011,6 hPa 0,0 l/m 2,3 km/h (1 Bft) S 180 5 min 0,0 UV-I 12,6 C 20,3 C 1,8 km/h (1 Bft)
30.06.2014 12:30 16,8 C 24,5 C 16,9 C 20,7 C 20,7 C 3,9 C 76 % 85 % 100 % 1011,6 hPa 0,0 l/m 2,9 km/h (1 Bft) S-SW 202 5 min 0,0 UV-I 12,5 C 20,7 C 6,3 km/h (2 Bft)
30.06.2014 12:35 16,7 C 24,5 C 17,0 C 20,6 C 20,6 C 3,9 C 75 % 84 % 100 % 1011,6 hPa 0,0 l/m 3,4 km/h (1 Bft) S 180 5 min 0,0 UV-I 12,2 C 20,6 C 2,9 km/h (1 Bft)
30.06.2014 12:41 17,6 C 24,5 C 18,0 C 23,7 C 23,7 C 6,1 C 75 % 84 % 100 % 1011,6 hPa 0,0 l/m 3,1 km/h (1 Bft) N 0 6 min 0,0 UV-I 13,1 C 23,7 C 8,7 km/h (2 Bft)
30.06.2014 13:01 17,9 C 24,5 C 18,1 C 22,2 C 22,2 C 4,3 C 73 % 82 % 100 % 1011,4 hPa 0,0 l/m 3,5 km/h (1 Bft) W-SW 247 20 min 0,0 UV-I 13,0 C 22,2 C 12,9 km/h (3 Bft)
30.06.2014 13:05 17,9 C 24,5 C 18,1 C 22,2 C 22,2 C 4,3 C 73 % 82 % 100 % 1011,4 hPa 0,0 l/m 3,5 km/h (1 Bft) W-SW 247 4 min 0,0 UV-I 13,0 C 22,2 C 8,9 km/h (2 Bft)
30.06.2014 13:10 17,8 C 24,5 C 18,0 C 22,0 C 22,0 C 4,2 C 72 % 82 % 100 % 1011,4 hPa 0,0 l/m 3,4 km/h (1 Bft) S-SW 202 5 min 0,0 UV-I 12,7 C 22,0 C 3,2 km/h (1 Bft)
30.06.2014 13:15 17,9 C 24,5 C 18,0 C 21,8 C 21,8 C 3,9 C 72 % 81 % 100 % 1011,4 hPa 0,0 l/m 3,5 km/h (1 Bft) SO 135 5 min 0,0 UV-I 12,8 C 21,8 C 0,0 km/h (0 Bft)
30.06.2014 13:20 18,0 C 24,5 C 18,3 C 22,5 C 22,5 C 4,5 C 72 % 81 % 100 % 1011,4 hPa 0,0 l/m 3,2 km/h (1 Bft) SO 135 5 min 0,0 UV-I 12,9 C 22,5 C 6,3 km/h (2 Bft)
30.06.2014 13:25 18,2 C 24,5 C 18,2 C 22,8 C 22,8 C 4,6 C 71 % 81 % 100 % 1011,4 hPa 0,0 l/m 3,2 km/h (1 Bft) SW 225 5 min 0,0 UV-I 12,9 C 22,8 C 8,9 km/h (2 Bft)
30.06.2014 13:30 18,4 C 24,4 C 18,5 C 23,2 C 23,2 C 4,8 C 72 % 81 % 100 % 1011,4 hPa 0,0 l/m 4,2 km/h (1 Bft) O-SO 112 5 min 0,0 UV-I 13,3 C 23,2 C 3,1 km/h (1 Bft)
30.06.2014 13:35 18,6 C 24,4 C 18,7 C 23,9 C 23,9 C 5,3 C 70 % 81 % 100 % 1011,4 hPa 0,0 l/m 4,0 km/h (1 Bft) W-NW 292 5 min 0,0 UV-I 13,0 C 23,9 C 6,0 km/h (2 Bft)
30.06.2014 13:40 18,7 C 24,4 C 18,5 C 23,4 C 23,4 C 4,7 C 68 % 80 % 100 % 1011,2 hPa 0,0 l/m 3,9 km/h (1 Bft) O-NO 67 5 min 0,0 UV-I 12,7 C 23,4 C 6,6 km/h (2 Bft)
30.06.2014 13:45 18,5 C 24,4 C 18,8 C 23,7 C 23,7 C 5,2 C 70 % 80 % 100 % 1011,2 hPa 0,0 l/m 3,9 km/h (1 Bft) W-SW 247 5 min 0,0 UV-I 12,9 C 23,7 C 2,9 km/h (1 Bft)
30.06.2014 13:50 19,1 C 24,5 C 19,3 C 25,0 C 25,0 C 5,9 C 69 % 78 % 100 % 1011,2 hPa 0,0 l/m 3,5 km/h (1 Bft) O-NO 67 5 min 0,0 UV-I 13,3 C 25,0 C 4,2 km/h (1 Bft)
30.06.2014 13:55 19,5 C 24,5 C 19,6 C 25,6 C 25,6 C 6,1 C 66 % 77 % 100 % 1011,2 hPa 0,0 l/m 4,2 km/h (1 Bft) S 180 5 min 0,0 UV-I 13,0 C 25,6 C 4,0 km/h (1 Bft)
30.06.2014 14:00 19,2 C 24,5 C 18,9 C 23,7 C 23,7 C 4,5 C 66 % 75 % 100 % 1011,2 hPa 0,0 l/m 6,0 km/h (2 Bft) S 180 5 min 0,0 UV-I 12,7 C 23,7 C 15,4 km/h (3 Bft)
30.06.2014 14:05 18,5 C 24,4 C 18,4 C 21,6 C 21,6 C 3,1 C 68 % 77 % 82 % 1011,2 hPa 0,0 l/m 6,3 km/h (2 Bft) SW 225 0 min 0,0 UV-I 12,5 C 21,6 C 9,0 km/h (2 Bft)
30.06.2014 14:10 17,8 C 24,6 C 17,9 C 19,0 C 19,0 C 1,2 C 72 % 79 % 32 % 1011,2 hPa 0,0 l/m 5,6 km/h (1 Bft) W-SW 247 0 min 0,0 UV-I 12,7 C 19,0 C 3,9 km/h (1 Bft)
30.06.2014 14:15 17,5 C 24,5 C 17,6 C 17,6 C 17,6 C 0,1 C 73 % 79 % 3 % 1011,2 hPa 0,0 l/m 5,0 km/h (1 Bft) W-SW 247 0 min 0,0 UV-I 12,6 C 17,6 C 5,0 km/h (1 Bft)
30.06.2014 14:20 16,9 C 24,5 C 17,4 C 16,8 C 16,6 C 0,0 C 74 % 78 % 0 % 1011,9 hPa 0,0 l/m 4,0 km/h (1 Bft) SW 225 0 min 0,0 UV-I 12,2 C 16,6 C 2,3 km/h (1 Bft)
30.06.2014 14:25 16,8 C 24,5 C 17,4 C 16,7 C 16,5 C 0,0 C 75 % 79 % 0 % 1011,9 hPa 0,0 l/m 2,4 km/h (1 Bft) SW 225 0 min 0,0 UV-I 12,3 C 16,5 C 2,7 km/h (1 Bft)
30.06.2014 14:30 16,8 C 24,5 C 17,5 C 16,8 C 16,8 C 0,0 C 76 % 80 % 0 % 1011,9 hPa 0,0 l/m 1,6 km/h (1 Bft) W-SW 247 0 min 0,0 UV-I 12,5 C 16,8 C 1,8 km/h (1 Bft)
30.06.2014 14:35 16,9 C 24,5 C 17,4 C 17,3 C 17,3 C 0,4 C 76 % 80 % 11 % 1011,9 hPa 0,0 l/m 2,1 km/h (1 Bft) SW 225 0 min 0,0 UV-I 12,6 C 17,3 C 2,6 km/h (1 Bft)
30.06.2014 14:40 17,1 C 24,5 C 17,6 C 18,3 C 18,3 C 1,2 C 76 % 79 % 32 % 1011,8 hPa 0,0 l/m 1,8 km/h (1 Bft) S 180 0 min 0,0 UV-I 12,8 C 18,3 C 2,7 km/h (1 Bft)
30.06.2014 14:45 17,3 C 24,5 C 17,6 C 19,0 C 19,0 C 1,7 C 76 % 79 % 45 % 1011,8 hPa 0,0 l/m 1,3 km/h (1 Bft) W 270 0 min 0,0 UV-I 13,0 C 19,0 C 0,0 km/h (0 Bft)
30.06.2014 14:50 17,6 C 24,6 C 17,8 C 19,9 C 19,9 C 2,3 C 75 % 79 % 61 % 1011,8 hPa 0,0 l/m 1,1 km/h (1 Bft) SW 225 0 min 0,0 UV-I 13,1 C 19,9 C 0,0 km/h (0 Bft)
30.06.2014 14:55 18,1 C 24,6 C 18,1 C 21,4 C 21,4 C 3,3 C 75 % 79 % 87 % 1011,8 hPa 0,0 l/m 1,1 km/h (1 Bft) NW 315 5 min 0,0 UV-I 13,6 C 21,4 C 3,4 km/h (1 Bft)
30.06.2014 15:00 18,6 C 24,5 C 18,4 C 22,5 C 22,5 C 3,9 C 73 % 78 % 100 % 1011,8 hPa 0,0 l/m 2,6 km/h (1 Bft) S 180 5 min 0,0 UV-I 13,7 C 22,5 C 2,1 km/h (1 Bft)
30.06.2014 15:05 18,7 C 24,5 C 18,5 C 22,8 C 22,8 C 4,1 C 72 % 78 % 100 % 1011,8 hPa 0,0 l/m 3,7 km/h (1 Bft) W-SW 247 5 min 0,0 UV-I 13,5 C 22,8 C 7,4 km/h (2 Bft)
30.06.2014 15:10 18,9 C 24,5 C 18,1 C 22,1 C 22,1 C 3,2 C 69 % 76 % 84 % 1011,8 hPa 0,0 l/m 3,5 km/h (1 Bft) SW 225 0 min 0,0 UV-I 13,1 C 22,1 C 4,8 km/h (1 Bft)
30.06.2014 15:15 18,4 C 24,5 C 17,9 C 20,9 C 20,9 C 2,5 C 67 % 76 % 66 % 1011,8 hPa 0,0 l/m 4,2 km/h (1 Bft) SW 225 0 min 0,0 UV-I 12,2 C 20,9 C 4,3 km/h (1 Bft)
30.06.2014 15:20 18,0 C 24,6 C 17,6 C 19,6 C 19,6 C 1,6 C 69 % 76 % 42 % 1012,0 hPa 0,0 l/m 4,3 km/h (1 Bft) S 180 0 min 0,0 UV-I 12,2 C 19,6 C 3,5 km/h (1 Bft)
30.06.2014 15:25 17,7 C 24,6 C 17,3 C 18,2 C 18,2 C 0,5 C 72 % 77 % 13 % 1012,0 hPa 0,0 l/m 3,9 km/h (1 Bft) W 270 0 min 0,0 UV-I 12,6 C 18,2 C 2,7 km/h (1 Bft)
30.06.2014 15:30 17,2 C 24,6 C 17,1 C 17,0 C 16,7 C 0,0 C 74 % 79 % 0 % 1012,0 hPa 0,0 l/m 3,2 km/h (1 Bft) S-SW 202 0 min 0,0 UV-I 12,5 C 16,7 C 1,6 km/h (1 Bft)
30.06.2014 15:35 17,1 C 24,6 C 16,8 C 16,8 C 16,2 C 0,0 C 75 % 79 % 0 % 1012,0 hPa 0,0 l/m 2,6 km/h (1 Bft) S 180 0 min 0,0 UV-I 12,6 C 16,2 C 2,4 km/h (1 Bft)
30.06.2014 15:40 16,8 C 24,6 C 16,7 C 16,6 C 16,2 C 0,0 C 76 % 80 % 0 % 1012,4 hPa 0,0 l/m 2,9 km/h (1 Bft) S 180 0 min 0,0 UV-I 12,5 C 16,2 C 4,5 km/h (1 Bft)
30.06.2014 15:45 16,6 C 24,6 C 16,7 C 16,5 C 16,3 C 0,0 C 76 % 80 % 0 % 1012,4 hPa 0,0 l/m 3,2 km/h (1 Bft) S 180 0 min 0,0 UV-I 12,3 C 16,3 C 3,1 km/h (1 Bft)
30.06.2014 15:50 16,7 C 24,6 C 16,7 C 16,7 C 16,6 C 0,0 C 77 % 81 % 0 % 1012,4 hPa 0,0 l/m 2,6 km/h (1 Bft) S 180 0 min 0,0 UV-I 12,6 C 16,6 C 2,4 km/h (1 Bft)
30.06.2014 15:55 16,7 C 24,6 C 16,7 C 16,9 C 16,9 C 0,2 C 77 % 80 % 5 % 1012,4 hPa 0,0 l/m 2,4 km/h (1 Bft) W 270 0 min 0,0 UV-I 12,6 C 16,9 C 7,2 km/h (2 Bft)
30.06.2014 16:00 16,7 C 24,6 C 16,8 C 17,6 C 17,6 C 0,9 C 76 % 80 % 24 % 1012,4 hPa 0,0 l/m 3,1 km/h (1 Bft) W 270 0 min 0,0 UV-I 12,4 C 17,6 C 3,9 km/h (1 Bft)
30.06.2014 16:05 16,9 C 24,6 C 17,1 C 18,7 C 18,7 C 1,8 C 76 % 80 % 47 % 1012,4 hPa 0,0 l/m 2,9 km/h (1 Bft) S-SO 157 0 min 0,0 UV-I 12,6 C 18,7 C 2,9 km/h (1 Bft)
30.06.2014 16:10 17,2 C 24,6 C 17,3 C 19,8 C 19,8 C 2,6 C 77 % 80 % 68 % 1012,4 hPa 0,0 l/m 1,9 km/h (1 Bft) W 270 0 min 0,0 UV-I 13,1 C 19,8 C 4,2 km/h (1 Bft)
30.06.2014 16:15 17,5 C 24,6 C 17,5 C 20,1 C 20,1 C 2,6 C 77 % 80 % 68 % 1012,4 hPa 0,0 l/m 1,1 km/h (1 Bft) SW 225 0 min 0,0 UV-I 13,4 C 20,1 C 0,0 km/h (0 Bft)
30.06.2014 16:20 17,6 C 24,6 C 17,5 C 20,0 C 20,0 C 2,4 C 76 % 79 % 63 % 1012,3 hPa 0,0 l/m 0,6 km/h (0 Bft) SO 135 0 min 0,0 UV-I 13,3 C 20,0 C 0,0 km/h (0 Bft)
30.06.2014 16:25 17,6 C 24,6 C 17,4 C 19,9 C 19,9 C 2,3 C 76 % 79 % 61 % 1012,3 hPa 0,0 l/m 0,5 km/h (0 Bft) S 180 0 min 0,0 UV-I 13,3 C 19,9 C 1,8 km/h (1 Bft)
30.06.2014 16:30 17,7 C 24,6 C 17,3 C 19,7 C 19,7 C 2,0 C 76 % 79 % 53 % 1012,3 hPa 0,0 l/m 0,3 km/h (0 Bft) S-SW 202 0 min 0,0 UV-I 13,4 C 19,7 C 0,0 km/h (0 Bft)
30.06.2014 16:35 17,7 C 24,6 C 17,2 C 19,6 C 19,6 C 1,9 C 76 % 79 % 50 % 1012,3 hPa 0,0 l/m 0,2 km/h (0 Bft) SO 135 0 min 0,0 UV-I 13,4 C 19,6 C 0,0 km/h (0 Bft)
30.06.2014 16:40 17,7 C 24,6 C 17,2 C 19,4 C 19,4 C 1,7 C 76 % 80 % 45 % 1011,9 hPa 0,0 l/m 0,2 km/h (0 Bft) SW 225 0 min 0,0 UV-I 13,4 C 19,4 C 0,0 km/h (0 Bft)
30.06.2014 16:45 17,6 C 24,6 C 17,2 C 19,4 C 19,4 C 1,8 C 76 % 80 % 47 % 1011,9 hPa 0,0 l/m 0,2 km/h (0 Bft) SW 225 0 min 0,0 UV-I 13,3 C 19,4 C 0,0 km/h (0 Bft)
30.06.2014 16:50 17,7 C 24,6 C 17,5 C 20,1 C 20,1 C 2,4 C 76 % 79 % 63 % 1011,9 hPa 0,0 l/m 0,2 km/h (0 Bft) S-SO 157 0 min 0,0 UV-I 13,4 C 20,1 C 0,0 km/h (0 Bft)
30.06.2014 16:55 17,8 C 24,6 C 17,6 C 20,9 C 20,9 C 3,1 C 75 % 79 % 82 % 1011,9 hPa 0,0 l/m 0,8 km/h (0 Bft) S 180 0 min 0,0 UV-I 13,3 C 20,9 C 0,0 km/h (0 Bft)
30.06.2014 17:00 18,3 C 24,7 C 18,0 C 22,2 C 22,2 C 3,9 C 74 % 79 % 100 % 1012,4 hPa 0,0 l/m 0,8 km/h (0 Bft) S 180 5 min 0,0 UV-I 13,6 C 22,2 C 0,0 km/h (0 Bft)
30.06.2014 17:05 18,4 C 24,7 C 17,9 C 22,3 C 22,3 C 3,9 C 74 % 78 % 100 % 1012,4 hPa 0,0 l/m 0,3 km/h (0 Bft) SW 225 5 min 0,0 UV-I 13,7 C 22,3 C 0,0 km/h (0 Bft)
30.06.2014 17:10 18,1 C 24,6 C 17,3 C 20,6 C 20,6 C 2,5 C 69 % 76 % 66 % 1012,4 hPa 0,0 l/m 2,9 km/h (1 Bft) S 180 0 min 0,0 UV-I 12,3 C 20,6 C 10,0 km/h (2 Bft)
30.06.2014 17:15 17,1 C 24,6 C 16,7 C 18,7 C 18,7 C 1,6 C 69 % 75 % 42 % 1012,4 hPa 0,0 l/m 5,0 km/h (1 Bft) S-SO 157 0 min 0,0 UV-I 11,4 C 18,7 C 9,2 km/h (2 Bft)
30.06.2014 17:20 15,7 C 24,7 C 15,3 C 15,5 C 15,0 C 0,0 C 72 % 78 % 0 % 1012,9 hPa 2,1 l/m 5,5 km/h (1 Bft) W-SW 247 0 min 0,0 UV-I 10,7 C 15,0 C 4,5 km/h (1 Bft)
30.06.2014 17:25 15,1 C 24,8 C 14,5 C 14,7 C 13,8 C 0,0 C 74 % 81 % 0 % 1012,9 hPa 0,0 l/m 3,2 km/h (1 Bft) W 270 0 min 0,0 UV-I 10,5 C 13,8 C 0,0 km/h (0 Bft)
30.06.2014 17:30 14,7 C 25,0 C 14,1 C 14,1 C 12,8 C 0,0 C 76 % 83 % 0 % 1012,9 hPa 0,0 l/m 0,5 km/h (0 Bft) O 90 0 min 0,0 UV-I 10,5 C 12,8 C 0,0 km/h (0 Bft)
30.06.2014 17:35 14,5 C 25,1 C 13,9 C 13,9 C 12,6 C 0,0 C 77 % 84 % 0 % 1012,9 hPa 0,0 l/m 0,0 km/h (0 Bft) O-SO 112 0 min 0,0 UV-I 10,5 C 12,6 C 0,0 km/h (0 Bft)
30.06.2014 17:40 14,1 C 25,1 C 13,5 C 13,5 C 12,4 C 0,0 C 79 % 86 % 0 % 1012,8 hPa 0,0 l/m 0,0 km/h (0 Bft) O-SO 112 0 min 0,0 UV-I 10,5 C 12,4 C 0,0 km/h (0 Bft)
30.06.2014 17:45 13,9 C 25,1 C 13,3 C 13,4 C 12,4 C 0,0 C 80 % 87 % 0 % 1012,8 hPa 0,0 l/m 0,0 km/h (0 Bft) O-NO 67 0 min 0,0 UV-I 10,5 C 12,4 C 0,0 km/h (0 Bft)
30.06.2014 17:50 13,6 C 25,1 C 13,1 C 13,2 C 12,4 C 0,0 C 81 % 88 % 0 % 1012,8 hPa 0,0 l/m 0,0 km/h (0 Bft) O-NO 67 0 min 0,0 UV-I 10,4 C 12,4 C 0,0 km/h (0 Bft)
30.06.2014 17:55 13,5 C 25,1 C 13,2 C 13,2 C 12,5 C 0,0 C 82 % 88 % 0 % 1012,8 hPa 0,0 l/m 0,0 km/h (0 Bft) O-NO 67 0 min 0,0 UV-I 10,5 C 12,5 C 0,0 km/h (0 Bft)
30.06.2014 18:00 13,5 C 25,1 C 13,3 C 13,2 C 12,7 C 0,0 C 83 % 89 % 0 % 1012,6 hPa 0,0 l/m 0,0 km/h (0 Bft) O-SO 112 0 min 0,0 UV-I 10,7 C 12,7 C 0,0 km/h (0 Bft)
30.06.2014 18:05 13,3 C 25,1 C 13,5 C 13,2 C 13,1 C 0,0 C 83 % 90 % 0 % 1012,6 hPa 0,0 l/m 0,0 km/h (0 Bft) O 90 0 min 0,0 UV-I 10,5 C 13,1 C 0,0 km/h (0 Bft)
30.06.2014 18:10 13,2 C 25,2 C 13,7 C 13,6 C 13,6 C 0,4 C 84 % 90 % 11 % 1012,6 hPa 0,0 l/m 0,2 km/h (0 Bft) W-NW 292 0 min 0,0 UV-I 10,6 C 13,6 C 0,0 km/h (0 Bft)
30.06.2014 18:15 13,1 C 25,1 C 14,0 C 14,0 C 14,0 C 0,9 C 85 % 90 % 24 % 1012,6 hPa 0,0 l/m 0,2 km/h (0 Bft) N-NO 22 0 min 0,0 UV-I 10,6 C 14,0 C 0,0 km/h (0 Bft)
30.06.2014 18:20 13,1 C 25,1 C 14,5 C 15,6 C 15,6 C 2,5 C 85 % 91 % 66 % 1012,4 hPa 0,0 l/m 0,0 km/h (0 Bft) O-SO 112 0 min 0,0 UV-I 10,6 C 15,6 C 0,0 km/h (0 Bft)
30.06.2014 18:25 13,2 C 25,0 C 14,9 C 17,4 C 17,4 C 4,2 C 86 % 91 % 100 % 1012,4 hPa 0,0 l/m 0,2 km/h (0 Bft) W-SW 247 5 min 0,0 UV-I 10,9 C 17,4 C 1,6 km/h (1 Bft)
30.06.2014 18:30 13,5 C 25,0 C 15,2 C 20,4 C 20,4 C 6,9 C 86 % 91 % 100 % 1012,4 hPa 0,0 l/m 0,6 km/h (0 Bft) S 180 5 min 0,0 UV-I 11,2 C 20,4 C 0,0 km/h (0 Bft)
30.06.2014 18:35 13,6 C 25,0 C 15,2 C 21,4 C 21,4 C 7,8 C 86 % 91 % 100 % 1012,4 hPa 0,0 l/m 0,6 km/h (0 Bft) N-NO 22 5 min 0,0 UV-I 11,3 C 21,4 C 0,0 km/h (0 Bft)
30.06.2014 18:41 14,1 C 25,0 C 15,2 C 23,0 C 23,0 C 8,9 C 86 % 90 % 100 % 1012,8 hPa 0,0 l/m 0,2 km/h (0 Bft) N 0 6 min 0,0 UV-I 11,8 C 23,0 C 2,7 km/h (1 Bft)
30.06.2014 19:01 14,9 C 25,0 C 15,4 C 23,4 C 23,4 C 8,5 C 84 % 90 % 100 % 1012,7 hPa 0,0 l/m 0,0 km/h (0 Bft) O-SO 112 20 min 0,0 UV-I 12,2 C 23,4 C 0,0 km/h (0 Bft)
30.06.2014 19:02 14,9 C 25,0 C 15,4 C 23,4 C 23,4 C 8,5 C 84 % 90 % 100 % 1012,7 hPa 0,0 l/m 0,0 km/h (0 Bft) O-SO 112 1 min 0,0 UV-I 12,2 C 23,4 C 0,0 km/h (0 Bft)
30.06.2014 19:05 14,9 C 25,0 C 15,4 C 23,4 C 23,4 C 8,5 C 84 % 90 % 100 % 1012,7 hPa 0,0 l/m 0,0 km/h (0 Bft) O-SO 112 3 min 0,0 UV-I 12,2 C 23,4 C 0,0 km/h (0 Bft)
30.06.2014 19:10 15,0 C 25,0 C 15,5 C 23,1 C 23,1 C 8,1 C 84 % 90 % 100 % 1012,7 hPa 0,0 l/m 0,0 km/h (0 Bft) O-NO 67 5 min 0,0 UV-I 12,3 C 23,1 C 0,0 km/h (0 Bft)
30.06.2014 19:15 15,3 C 25,0 C 15,8 C 23,4 C 23,4 C 8,1 C 84 % 91 % 100 % 1012,7 hPa 0,0 l/m 0,3 km/h (0 Bft) SW 225 5 min 0,0 UV-I 12,6 C 23,4 C 4,5 km/h (1 Bft)
30.06.2014 19:20 15,5 C 24,8 C 15,8 C 22,3 C 22,3 C 6,8 C 82 % 91 % 100 % 1012,5 hPa 0,0 l/m 0,6 km/h (0 Bft) SW 225 5 min 0,0 UV-I 12,4 C 22,3 C 0,0 km/h (0 Bft)
30.06.2014 19:25 15,7 C 24,9 C 15,6 C 20,8 C 20,8 C 5,1 C 82 % 91 % 100 % 1012,5 hPa 0,0 l/m 0,5 km/h (0 Bft) W 270 5 min 0,0 UV-I 12,6 C 20,8 C 0,0 km/h (0 Bft)
30.06.2014 19:30 15,7 C 24,9 C 15,7 C 19,5 C 19,5 C 3,8 C 82 % 91 % 100 % 1012,5 hPa 0,0 l/m 0,0 km/h (0 Bft) W-NW 292 5 min 0,0 UV-I 12,6 C 19,5 C 0,0 km/h (0 Bft)
30.06.2014 19:35 15,7 C 25,0 C 15,6 C 19,0 C 19,0 C 3,3 C 82 % 91 % 87 % 1012,5 hPa 0,0 l/m 0,0 km/h (0 Bft) SO 135 5 min 0,0 UV-I 12,6 C 19,0 C 0,0 km/h (0 Bft)
30.06.2014 19:40 15,6 C 24,8 C 15,8 C 18,6 C 18,6 C 3,0 C 82 % 91 % 79 % 1012,8 hPa 0,0 l/m 0,0 km/h (0 Bft) NO 45 5 min 0,0 UV-I 12,5 C 18,6 C 0,0 km/h (0 Bft)
30.06.2014 19:45 15,6 C 24,8 C 16,0 C 19,2 C 19,2 C 3,6 C 82 % 91 % 95 % 1012,8 hPa 0,0 l/m 0,0 km/h (0 Bft) N-NW 337 5 min 0,0 UV-I 12,5 C 19,2 C 0,0 km/h (0 Bft)
30.06.2014 19:50 16,0 C 24,8 C 16,0 C 20,3 C 20,3 C 4,3 C 82 % 91 % 100 % 1012,8 hPa 0,0 l/m 0,0 km/h (0 Bft) S 180 5 min 0,0 UV-I 12,9 C 20,3 C 0,0 km/h (0 Bft)
30.06.2014 19:55 16,3 C 24,8 C 16,0 C 19,7 C 19,7 C 3,4 C 81 % 91 % 89 % 1012,8 hPa 0,0 l/m 0,2 km/h (0 Bft) N-NO 22 5 min 0,0 UV-I 13,0 C 19,7 C 0,0 km/h (0 Bft)
30.06.2014 20:00 16,3 C 24,8 C 15,9 C 19,2 C 19,2 C 2,9 C 81 % 91 % 76 % 1012,9 hPa 0,0 l/m 0,5 km/h (0 Bft) SW 225 5 min 0,0 UV-I 13,0 C 19,2 C 1,9 km/h (1 Bft)
30.06.2014 20:05 16,3 C 24,9 C 16,1 C 19,4 C 19,4 C 3,1 C 80 % 91 % 82 % 1012,9 hPa 0,0 l/m 0,6 km/h (0 Bft) W-SW 247 5 min 0,0 UV-I 12,8 C 19,4 C 2,6 km/h (1 Bft)
30.06.2014 20:10 16,2 C 24,8 C 15,9 C 18,6 C 18,6 C 2,4 C 79 % 91 % 63 % 1012,9 hPa 0,0 l/m 1,1 km/h (1 Bft) W 270 5 min 0,0 UV-I 12,6 C 18,6 C 0,0 km/h (0 Bft)
30.06.2014 20:15 16,1 C 24,9 C 15,6 C 17,7 C 17,7 C 1,6 C 79 % 91 % 42 % 1012,9 hPa 0,0 l/m 0,8 km/h (0 Bft) S-SW 202 5 min 0,0 UV-I 12,5 C 17,7 C 0,0 km/h (0 Bft)
30.06.2014 20:20 15,9 C 24,9 C 15,4 C 16,4 C 16,4 C 0,5 C 80 % 90 % 13 % 1012,9 hPa 0,0 l/m 0,3 km/h (0 Bft) NW 315 0 min 0,0 UV-I 12,5 C 16,4 C 0,0 km/h (0 Bft)
30.06.2014 20:25 15,8 C 24,9 C 15,2 C 15,8 C 15,7 C 0,0 C 80 % 90 % 0 % 1012,9 hPa 0,0 l/m 0,3 km/h (0 Bft) W-SW 247 0 min 0,0 UV-I 12,4 C 15,7 C 0,0 km/h (0 Bft)
30.06.2014 20:30 15,6 C 24,9 C 15,1 C 15,4 C 15,0 C 0,0 C 80 % 90 % 0 % 1012,9 hPa 0,0 l/m 0,0 km/h (0 Bft) W-SW 247 0 min 0,0 UV-I 12,2 C 15,0 C 0,0 km/h (0 Bft)
30.06.2014 20:35 15,5 C 24,9 C 15,1 C 15,2 C 14,6 C 0,0 C 81 % 90 % 0 % 1012,9 hPa 0,0 l/m 0,0 km/h (0 Bft) W-SW 247 0 min 0,0 UV-I 12,3 C 14,6 C 0,0 km/h (0 Bft)
30.06.2014 20:40 15,3 C 24,9 C 14,8 C 14,9 C 14,1 C 0,0 C 80 % 90 % 0 % 1013,6 hPa 0,0 l/m 0,0 km/h (0 Bft) W-SW 247 0 min 0,0 UV-I 11,9 C 14,1 C 0,0 km/h (0 Bft)
30.06.2014 20:45 15,1 C 25,0 C 14,8 C 14,7 C 13,9 C 0,0 C 81 % 90 % 0 % 1013,6 hPa 0,0 l/m 0,0 km/h (0 Bft) W-SW 247 0 min 0,0 UV-I 11,9 C 13,9 C 0,0 km/h (0 Bft)
30.06.2014 20:50 14,9 C 25,0 C 14,7 C 14,5 C 13,8 C 0,0 C 82 % 90 % 0 % 1013,6 hPa 0,0 l/m 0,0 km/h (0 Bft) W-SW 247 0 min 0,0 UV-I 11,9 C 13,8 C 0,0 km/h (0 Bft)
30.06.2014 20:55 14,7 C 24,9 C 14,8 C 14,4 C 13,9 C 0,0 C 82 % 90 % 0 % 1013,6 hPa 0,0 l/m 0,8 km/h (0 Bft) W-SW 247 0 min 0,0 UV-I 11,7 C 13,9 C 6,1 km/h (2 Bft)
30.06.2014 21:00 14,3 C 24,8 C 14,2 C 14,0 C 13,3 C 0,0 C 82 % 90 % 0 % 1013,8 hPa 1,4 l/m 2,4 km/h (1 Bft) NW 315 0 min 0,0 UV-I 11,3 C 13,3 C 2,1 km/h (1 Bft)
30.06.2014 21:05 14,1 C 24,9 C 14,1 C 13,7 C 13,0 C 0,0 C 82 % 90 % 0 % 1013,8 hPa 0,7 l/m 2,4 km/h (1 Bft) W-SW 247 0 min 0,0 UV-I 11,1 C 13,0 C 0,0 km/h (0 Bft)
30.06.2014 21:10 13,8 C 24,9 C 13,9 C 13,4 C 12,6 C 0,0 C 83 % 90 % 0 % 1013,8 hPa 0,0 l/m 1,4 km/h (1 Bft) S 180 0 min 0,0 UV-I 11,0 C 12,6 C 3,5 km/h (1 Bft)
30.06.2014 21:15 13,6 C 24,9 C 13,7 C 13,2 C 12,3 C 0,0 C 82 % 90 % 0 % 1013,8 hPa 0,0 l/m 1,1 km/h (1 Bft) W-SW 247 0 min 0,0 UV-I 10,6 C 12,3 C 1,9 km/h (1 Bft)
30.06.2014 21:20 13,2 C 24,9 C 13,6 C 12,8 C 11,9 C 0,0 C 83 % 90 % 0 % 1013,7 hPa 0,0 l/m 1,0 km/h (0 Bft) SW 225 0 min 0,0 UV-I 10,4 C 11,9 C 3,9 km/h (1 Bft)
30.06.2014 21:25 13,1 C 24,9 C 13,5 C 12,7 C 11,8 C 0,0 C 83 % 90 % 0 % 1013,7 hPa 0,0 l/m 1,1 km/h (1 Bft) S 180 0 min 0,0 UV-I 10,3 C 11,8 C 1,8 km/h (1 Bft)
30.06.2014 21:30 12,7 C 24,9 C 13,3 C 12,3 C 11,6 C 0,0 C 83 % 91 % 0 % 1013,7 hPa 0,0 l/m 1,1 km/h (1 Bft) W-SW 247 0 min 0,0 UV-I 9,9 C 11,6 C 1,9 km/h (1 Bft)
30.06.2014 21:35 12,5 C 24,9 C 13,3 C 12,2 C 11,5 C 0,0 C 84 % 91 % 0 % 1013,7 hPa 0,0 l/m 1,0 km/h (0 Bft) W-SW 247 0 min 0,0 UV-I 9,9 C 11,5 C 0,0 km/h (0 Bft)
30.06.2014 21:40 12,3 C 24,9 C 13,1 C 12,0 C 11,4 C 0,0 C 84 % 91 % 0 % 1013,9 hPa 0,0 l/m 0,6 km/h (0 Bft) S 180 0 min 0,0 UV-I 9,7 C 11,4 C 1,6 km/h (1 Bft)
30.06.2014 21:45 12,2 C 25,1 C 13,1 C 11,9 C 11,4 C 0,0 C 84 % 91 % 0 % 1013,9 hPa 0,0 l/m 0,2 km/h (0 Bft) NW 315 0 min 0,0 UV-I 9,6 C 11,4 C 0,0 km/h (0 Bft)
30.06.2014 21:50 12,0 C 25,1 C 13,1 C 11,8 C 11,4 C 0,0 C 85 % 91 % 0 % 1013,9 hPa 0,0 l/m 0,2 km/h (0 Bft) SW 225 0 min 0,0 UV-I 9,6 C 11,4 C 0,0 km/h (0 Bft)
30.06.2014 21:55 12,0 C 25,1 C 13,0 C 11,8 C 11,3 C 0,0 C 85 % 91 % 0 % 1013,9 hPa 0,0 l/m 0,0 km/h (0 Bft) S 180 0 min 0,0 UV-I 9,6 C 11,3 C 0,0 km/h (0 Bft)
30.06.2014 22:00 11,9 C 25,1 C 13,0 C 11,7 C 11,2 C 0,0 C 86 % 91 % 0 % 1014,2 hPa 0,0 l/m 0,0 km/h (0 Bft) S-SW 202 0 min 0,0 UV-I 9,6 C 11,2 C 0,0 km/h (0 Bft)
30.06.2014 22:05 11,7 C 25,1 C 12,9 C 11,5 C 11,2 C 0,0 C 86 % 91 % 0 % 1014,2 hPa 0,0 l/m 0,0 km/h (0 Bft) O-NO 67 0 min 0,0 UV-I 9,4 C 11,2 C 0,0 km/h (0 Bft)
30.06.2014 22:10 11,6 C 25,1 C 12,8 C 11,5 C 11,2 C 0,0 C 86 % 91 % 0 % 1014,2 hPa 0,0 l/m 0,0 km/h (0 Bft) S 180 0 min 0,0 UV-I 9,3 C 11,2 C 0,0 km/h (0 Bft)
30.06.2014 22:15 11,5 C 25,1 C 12,7 C 11,4 C 11,1 C 0,0 C 86 % 91 % 0 % 1014,2 hPa 0,0 l/m 0,0 km/h (0 Bft) O-NO 67 0 min 0,0 UV-I 9,2 C 11,1 C 0,0 km/h (0 Bft)
30.06.2014 22:20 11,5 C 25,1 C 12,7 C 11,3 C 11,0 C 0,0 C 86 % 91 % 0 % 1014,7 hPa 0,0 l/m 0,0 km/h (0 Bft) NO 45 0 min 0,0 UV-I 9,2 C 11,0 C 0,0 km/h (0 Bft)
30.06.2014 22:25 11,3 C 25,1 C 12,5 C 11,1 C 10,8 C 0,0 C 86 % 91 % 0 % 1014,7 hPa 0,0 l/m 0,0 km/h (0 Bft) S-SW 202 0 min 0,0 UV-I 9,0 C 10,8 C 0,0 km/h (0 Bft)
30.06.2014 22:31 11,1 C 25,1 C 12,5 C 11,0 C 10,8 C 0,0 C 86 % 91 % 0 % 1014,7 hPa 0,0 l/m 0,0 km/h (0 Bft) S-SW 202 0 min 0,0 UV-I 8,8 C 10,8 C 0,0 km/h (0 Bft)
30.06.2014 22:32 11,1 C 25,1 C 12,5 C 11,0 C 10,8 C 0,0 C 86 % 91 % 0 % 1014,7 hPa 0,0 l/m 0,0 km/h (0 Bft) S-SW 202 0 min 0,0 UV-I 8,8 C 10,8 C 0,0 km/h (0 Bft)
30.06.2014 22:33 11,1 C 25,1 C 12,5 C 11,0 C 10,8 C 0,0 C 86 % 91 % 0 % 1014,7 hPa 0,0 l/m 0,0 km/h (0 Bft) S-SW 202 0 min 0,0 UV-I 8,8 C 10,8 C 0,0 km/h (0 Bft)
30.06.2014 22:34 11,1 C 25,1 C 12,5 C 11,0 C 10,8 C 0,0 C 86 % 91 % 0 % 1014,7 hPa 0,0 l/m 0,0 km/h (0 Bft) S-SW 202 0 min 0,0 UV-I 8,8 C 10,8 C 0,0 km/h (0 Bft)
30.06.2014 22:35 11,1 C 25,1 C 12,5 C 11,0 C 10,8 C 0,0 C 86 % 91 % 0 % 1014,7 hPa 0,0 l/m 0,0 km/h (0 Bft) S-SW 202 0 min 0,0 UV-I 8,8 C 10,8 C 0,0 km/h (0 Bft)
30.06.2014 22:36 11,1 C 25,1 C 12,4 C 11,0 C 10,7 C 0,0 C 86 % 91 % 0 % 1014,9 hPa 0,0 l/m 0,0 km/h (0 Bft) W 270 0 min 0,0 UV-I 8,8 C 10,7 C 0,0 km/h (0 Bft)
30.06.2014 23:20 10,4 C 25,0 C 12,0 C 10,4 C 10,3 C 0,0 C 87 % 92 % 0 % 1015,8 hPa 0,0 l/m 0,0 km/h (0 Bft) W-NW 292 0 min 0,0 UV-I 8,3 C 10,3 C 0,0 km/h (0 Bft)
30.06.2014 23:25 10,3 C 25,1 C 12,1 C 10,3 C 10,3 C 0,0 C 87 % 92 % 0 % 1015,8 hPa 0,0 l/m 0,0 km/h (0 Bft) W-SW 247 0 min 0,0 UV-I 8,2 C 10,3 C 0,0 km/h (0 Bft)
30.06.2014 23:30 10,3 C 25,1 C 12,0 C 10,4 C 10,4 C 0,1 C 87 % 92 % 0 % 1015,8 hPa 0,0 l/m 0,0 km/h (0 Bft) W-SW 247 0 min 0,0 UV-I 8,2 C 10,4 C 0,0 km/h (0 Bft)
30.06.2014 23:35 10,3 C 25,1 C 12,1 C 10,6 C 10,6 C 0,3 C 88 % 92 % 0 % 1015,8 hPa 0,0 l/m 0,0 km/h (0 Bft) SW 225 0 min 0,0 UV-I 8,4 C 10,6 C 0,0 km/h (0 Bft)
30.06.2014 23:40 10,3 C 25,0 C 12,1 C 10,8 C 10,8 C 0,5 C 88 % 92 % 0 % 1015,2 hPa 0,0 l/m 0,0 km/h (0 Bft) SW 225 0 min 0,0 UV-I 8,4 C 10,8 C 0,0 km/h (0 Bft)
30.06.2014 23:45 10,3 C 25,0 C 12,1 C 10,8 C 10,8 C 0,5 C 88 % 92 % 0 % 1015,2 hPa 0,0 l/m 0,0 km/h (0 Bft) SW 225 0 min 0,0 UV-I 8,4 C 10,8 C 0,0 km/h (0 Bft)
30.06.2014 23:50 10,3 C 25,0 C 12,3 C 10,9 C 10,9 C 0,6 C 88 % 92 % 0 % 1015,2 hPa 0,0 l/m 0,0 km/h (0 Bft) W 270 0 min 0,0 UV-I 8,4 C 10,9 C 0,0 km/h (0 Bft)
30.06.2014 23:55 10,4 C 25,0 C 12,3 C 11,0 C 11,0 C 0,6 C 88 % 92 % 0 % 1015,2 hPa 0,0 l/m 0,0 km/h (0 Bft) S-SW 202 0 min 0,0 UV-I 8,5 C 11,0 C 0,0 km/h (0 Bft)
_ Min-Zeit 23:25 10:30 23:20 23:25 23:20 03:20 13:55 14:00 00:00 00:00 - 01:10 - - - 00:00 23:25 23:20 00:00
Minimum _ 10,3 C 24,4 C 12,0 C 10,3 C 10,3 C 0,0 C 66 % 75 % 0 % 1009,1 hPa - 0,0 km/h (0 Bft) - - - 0,0 UV-I 8,2 C 10,3 C 0,0 km/h (0 Bft)
_ Max-Zeit 13:55 00:00 13:55 13:55 13:55 18:41 06:25 00:20 07:30 23:20 17:20 14:05 - - 13:01 00:00 17:05 13:55 14:00
Maximum _ 19,5 C 25,5 C 19,6 C 25,6 C 25,6 C 8,9 C 92 % 94 % 100 % 1015,8 hPa 2,1 l/m 6,3 km/h
SW (2 Bft)
- - 20 min 0,0 UV-I 13,7 C 25,6 C 15,4 km/h
S (3 Bft)
Durchschnitt _ 13,9 C 24,9 C 14,8 C 16,0 C 15,9 C 2,1 C 84 % 89 % 43 % 1011,6 hPa #4,1 l/m 1,3 km/h (1 Bft) S - #8:00 h 0,0 UV-I 11,1 C 15,9 C 2,1 km/h (1 Bft)
2014 www.wetterstation-wechselburg.de